Satellite: OBJECT E
Catalog number: 38762
Epoch time:      12278.53224914
Element set:    0030
Inclination:      064.6771 deg
RA of node:       337.4428 deg
Eccentricity:    0.0219560
Arg of perigee:   283.4439 deg
Mean anomaly:     224.1284 deg
Mean motion:   14.79190727 rev/day
Decay rate:      4.835e-05 rev/day^2
Epoch rev:           00303
Checksum:              301

Satellite: OBJECT F
Catalog number: 38763
Epoch time:      12278.53194539
Element set:    0028
Inclination:      064.6755 deg
RA of node:       337.4432 deg
Eccentricity:    0.0219859
Arg of perigee:   283.6030 deg
Mean anomaly:     224.1451 deg
Mean motion:   14.79201828 rev/day
Decay rate:      4.382e-05 rev/day^2
Epoch rev:           00287
Checksum:              314

Satellite: OBJECT G
Catalog number: 38764
Epoch time:      12278.53160882
Element set:    0028
Inclination:      064.6751 deg
RA of node:       337.4420 deg
Eccentricity:    0.0219548
Arg of perigee:   283.5935 deg
Mean anomaly:     222.9426 deg
Mean motion:   14.79214043 rev/day
Decay rate:      4.593e-05 rev/day^2
Epoch rev:           00303
Checksum:              304

Satellite: OBJECT H
Catalog number: 38765
Epoch time:      12278.45503644
Element set:    0031
Inclination:      064.6769 deg
RA of node:       337.6737 deg
Eccentricity:    0.0219301
Arg of perigee:   283.5957 deg
Mean anomaly:     176.6794 deg
Mean motion:   14.79257306 rev/day
Decay rate:      6.059e-05 rev/day^2
Epoch rev:           00302
Checksum:              330

Satellite: OBJECT J
Catalog number: 38766
Epoch time:      12278.45696642
Element set:    0028
Inclination:      064.6746 deg
RA of node:       337.6519 deg
Eccentricity:    0.0219104
Arg of perigee:   283.4617 deg
Mean anomaly:     195.2216 deg
Mean motion:   14.79383851 rev/day
Decay rate:      6.945e-05 rev/day^2
Epoch rev:           00302
Checksum:              329

/EX


_______________________________________________
Via the Keps mailing list courtesy of AMSAT-NA
http://amsat.org/mailman/listinfo/keps

--- ViaMAIL!/WC v1.60d
 * Origin: Chowdanet (401-724-4410) telnet://chowdanet.com  (1:323/120)